Theta_e
293 294 294 294 295 295 296 296 298 299 300 301 304 308 312 316 318 320 320 321 320 320 320 320 320 319 318 317 317 316 315 315 301 295 294 291 289 289 288 288 289 290 290
294 294 294 294 294 295 294 295 295 297 299 300 303 307 311 314 316 318 319 319 320 320 319 318 317 316 315 315 314 315 314 312 308 296 291 290 288 288 287 288 289 290 290
294 294 293 294 294 295 295 296 297 297 298 301 304 307 310 313 317 318 318 317 316 315 314 312 312 312 313 313 312 312 311 310 309 303 291 288 287 287 287 287 288 289 290
294 294 294 293 293 294 295 296 297 298 299 300 302 304 307 310 312 314 315 313 312 310 310 310 310 309 309 308 308 307 307 307 304 300 292 288 287 287 287 287 287 289 289
294 294 293 292 293 294 295 296 297 298 299 300 301 302 304 306 307 308 309 309 309 309 307 307 307 307 305 303 301 298 299 300 297 293 289 288 287 286 288 288 287 288 289
294 294 293 292 293 294 295 296 297 298 299 300 301 302 303 303 304 305 306 306 305 304 303 300 297 298 296 295 294 293 293 293 291 291 290 289 287 287 287 287 287 287 290
294 295 294 293 293 294 295 296 297 298 299 299 300 301 302 302 302 303 304 305 302 302 299 297 297 293 293 291 291 291 291 291 291 291 290 289 287 287 287 286 287 288 287
294 294 293 293 293 294 294 293 294 297 298 299 300 300 301 302 301 302 303 302 300 297 295 294 293 291 290 290 290 290 289 288 289 290 289 289 288 287 287 287 287 287 287
294 293 292 293 293 293 293 294 293 292 293 296 298 299 299 300 299 299 300 299 296 294 292 291 290 290 290 289 289 289 288 287 287 288 288 288 287 287 287 287 287 288 287
293 293 292 291 291 294 292 292 293 293 291 291 292 293 293 294 294 295 296 295 294 291 290 289 289 288 288 288 288 288 287 286 286 286 286 287 287 287 287 287 287 288 287
292 292 291 290 290 292 294 293 292 292 292 292 290 290 290 290 290 291 292 292 291 290 289 289 288 288 288 288 288 288 288 286 286 286 286 286 286 286 286 287 286 287 287
291 291 291 290 289 289 290 293 292 291 291 290 291 291 290 289 288 289 289 289 289 289 289 288 288 287 288 287 287 287 287 286 285 285 285 285 285 285 286 286 286 287 288
289 289 289 289 289 288 289 289 290 291 290 290 289 289 289 290 289 288 288 288 288 288 288 288 287 286 287 287 287 287 286 285 285 285 285 285 285 285 285 285 286 286 287
290 289 288 288 288 287 287 287 288 288 289 289 289 289 289 289 288 288 288 288 287 287 286 286 285 285 284 284 284 283 285 284 284 285 285 285 284 284 284 285 285 286 285
290 289 288 288 288 287 287 287 287 288 289 289 290 290 289 289 289 289 288 287 287 287 286 285 284 284 283 284 283 283 282 283 284 284 284 284 284 283 283 284 284 284 285
290 289 289 288 288 288 287 287 287 287 288 288 288 288 288 288 288 288 288 288 287 286 285 284 283 283 283 283 283 283 282 282 283 283 283 283 283 283 283 283 283 283 283
291 291 289 288 288 288 287 287 287 288 287 287 287 287 287 288 288 288 287 287 286 285 285 284 284 284 284 284 283 282 283 283 283 282 283 283 283 283 281 282 282 282 282
294 291 291 290 289 288 288 288 288 288 287 287 287 287 286 287 286 286 286 285 285 284 284 284 283 284 285 285 285 285 284 284 284 283 283 282 282 282 282 281 281 281 281
294 292 291 290 290 289 289 288 288 288 288 288 288 287 286 286 286 285 284 285 285 284 284 283 283 284 284 284 284 284 284 284 284 283 283 283 282 282 282 282 281 281 281
292 292 291 290 289 288 288 288 288 287 287 287 288 288 288 286 285 285 285 285 285 285 285 285 285 285 285 285 285 285 284 284 284 284 283 283 283 283 282 281 281 281 281
292 291 290 289 289 288 288 287 287 287 287 287 288 288 288 287 286 286 286 285 285 285 286 286 286 286 286 286 285 284 284 284 284 283 283 283 283 282 282 281 281 281 281
291 290 289 288 288 288 288 288 287 287 287 287 287 287 287 286 286 286 287 287 286 287 286 286 286 286 286 286 286 285 284 284 283 283 283 282 282 282 281 281 280 280 280
290 289 288 288 287 287 287 287 287 286 286 287 287 286 286 286 285 285 285 286 286 286 286 286 286 286 286 286 286 285 286 285 285 284 283 282 282 281 281 280 280 279 279
287 287 287 287 287 286 286 286 286 286 286 286 286 286 286 286 285 285 285 285 285 285 285 285 285 285 286 286 286 286 286 286 287 285 283 282 281 280 280 280 280 279 279
286 286 286 286 286 286 285 285 285 285 285 285 285 285 285 285 285 285 285 285 284 284 284 284 284 284 284 284 285 285 286 286 286 285 284 283 280 280 280 279 279 279 279
284 284 285 285 285 285 285 285 285 285 285 285 285 284 284 284 284 284 284 284 284 284 284 284 284 283 284 284 284 284 284 283 283 282 281 280 280 279 279 279 279 278 278
Wind_Speed
5 5 4 6 6 5 6 7 7 6 6 6 6 4 1 1 4 6 6 8 7 6 5 6 8 9 7 6 6 5 4 6 9 5 6 7 5 6 6 8 9 12 15
4 3 5 5 5 5 5 6 6 7 6 6 4 3 1 2 5 7 7 7 10 9 9 9 8 5 3 2 4 6 5 4 7 10 9 7 6 6 7 8 10 13 14
2 3 4 5 6 6 6 6 6 5 5 3 2 2 1 4 7 8 8 9 9 8 7 6 7 7 7 5 5 5 5 4 4 10 9 7 6 7 7 9 9 11 13
6 7 7 7 7 7 6 7 7 6 5 4 3 2 2 4 6 9 10 9 10 10 9 8 7 5 4 4 5 5 7 7 10 15 13 11 8 8 9 9 9 9 12
5 6 6 6 7 7 8 9 10 9 8 7 8 7 7 7 7 8 11 13 12 12 10 9 7 5 4 4 5 6 8 11 14 14 14 10 8 7 7 9 9 12 13
5 4 4 5 6 7 9 12 11 11 11 11 12 11 11 11 10 10 11 12 12 11 11 9 8 7 7 5 5 8 10 12 13 11 9 11 9 9 9 10 10 4 2
4 4 4 7 9 10 10 9 9 11 11 12 11 11 11 11 8 9 9 10 8 8 7 6 7 8 6 7 8 7 8 9 9 9 15 10 10 10 10 11 11 7 6
5 3 3 4 5 8 8 9 8 8 8 9 9 9 10 10 9 8 7 8 8 9 7 7 6 6 7 8 9 9 9 9 10 13 12 12 11 12 10 11 12 14 11
6 5 3 3 3 3 5 5 5 6 5 5 7 7 8 8 8 8 7 7 8 8 7 6 5 6 8 9 9 12 13 12 11 12 13 13 11 11 12 12 13 12 4
11 8 6 6 5 4 1 2 4 4 5 5 4 4 4 5 6 6 5 7 7 8 7 7 8 8 10 9 9 12 13 12 12 14 13 13 11 10 11 11 11 7 7
12 10 8 7 7 7 6 3 2 2 3 3 3 3 3 3 2 4 5 6 7 8 8 8 7 8 7 6 7 9 10 13 13 11 11 11 10 9 9 8 10 11 7
13 13 11 10 9 8 7 7 6 5 4 2 3 2 1 1 2 3 4 4 5 6 8 8 7 7 7 7 8 8 9 13 12 10 10 10 9 9 9 9 9 8 7
15 15 14 13 12 12 12 11 11 10 8 6 5 5 5 6 6 5 3 2 3 5 7 7 7 8 9 8 8 8 12 11 10 11 11 11 10 10 10 11 11 11 10
18 18 16 15 14 14 13 13 13 13 14 13 12 11 9 8 7 7 7 7 7 6 6 7 9 7 5 5 8 10 10 9 9 10 11 12 12 13 12 11 11 10 9
20 20 20 19 18 17 17 17 18 17 17 17 16 13 12 11 11 10 11 11 11 11 11 10 8 8 9 10 11 11 11 11 12 13 14 14 14 15 13 13 11 11 7
24 24 25 24 23 21 20 19 20 19 18 19 18 17 15 14 10 10 12 14 14 13 13 13 12 12 12 12 14 14 15 15 15 15 17 16 17 17 17 16 15 14 10
30 27 27 27 26 25 24 22 19 18 23 23 22 22 21 18 18 18 17 18 18 18 18 20 20 21 21 20 19 19 18 19 16 16 18 20 20 18 18 18 18 16 14
30 31 29 28 28 27 27 26 24 20 21 24 28 27 26 23 21 18 18 18 20 23 25 21 22 26 26 25 25 25 22 21 21 21 21 22 22 22 21 21 20 21 19
28 30 30 29 28 28 27 26 26 25 24 22 22 20 25 25 22 20 20 25 22 21 22 22 23 25 27 27 27 26 25 25 25 23 23 23 24 25 26 25 24 23 21
25 27 26 26 25 25 25 25 24 24 24 25 25 28 24 22 22 25 25 26 25 27 29 29 28 27 28 28 30 30 30 30 30 30 29 28 28 28 29 29 28 28 27
23 23 24 26 25 24 24 24 23 22 22 23 27 27 28 30 30 30 29 31 33 33 33 33 32 31 32 32 30 30 31 32 33 34 33 33 33 32 31 30 30 31 28
22 22 21 23 23 22 23 22 21 23 23 22 22 23 23 27 29 30 31 32 35 35 35 33 33 33 32 32 33 31 32 33 34 35 35 36 35 34 33 32 31 32 31
21 21 20 20 21 19 18 20 21 20 20 20 19 20 20 25 27 28 30 30 32 34 35 35 34 33 33 34 34 35 32 34 32 31 34 35 35 36 36 34 33 31 31
17 19 19 18 17 17 17 16 19 19 19 18 17 18 20 21 23 23 23 25 27 29 30 32 32 32 32 34 35 35 34 32 31 31 30 32 33 34 34 34 34 35 33
16 16 17 16 16 16 15 15 14 14 15 15 16 15 17 19 20 20 19 20 22 24 25 26 27 28 29 31 35 36 35 34 32 31 32 31 33 33 34 34 33 32 32
12 14 13 13 13 12 11 9 10 10 12 13 13 13 13 14 15 16 15 16 18 20 21 20 21 22 23 25 27 31 31 31 32 31 30 31 32 33 32 33 33 32 32
Wind_Direction
25 15 2 6 5 348 341 337 336 331 327 318 302 295 231 186 160 172 179 185 190 219 238 232 240 235 239 244 242 252 230 164 117 112 130 138 114 111 86 81 77 64 50
16 11 18 28 18 12 360 350 348 341 345 328 295 284 294 181 178 191 196 205 198 200 214 203 196 195 181 162 161 151 160 151 138 129 147 145 150 140 97 87 81 70 58
57 55 38 34 35 32 25 20 18 7 5 1 346 299 256 162 159 180 188 185 181 177 171 164 160 153 144 135 137 140 147 151 168 155 135 148 138 147 114 91 90 81 63
45 40 27 20 25 39 41 54 55 51 47 44 49 83 105 130 161 171 175 163 152 136 132 132 133 134 137 151 150 149 147 144 140 142 134 145 147 157 153 111 93 88 69
48 48 34 22 34 45 51 64 71 76 77 75 76 81 93 108 121 139 139 131 130 127 124 126 127 141 148 148 141 138 149 148 146 142 140 143 150 144 160 169 127 104 72
113 88 47 36 39 47 59 63 67 74 81 88 89 93 99 106 123 130 132 128 123 125 121 124 118 117 120 136 147 149 146 148 142 143 142 142 149 149 146 160 174 153 127
122 92 62 49 41 39 49 61 72 74 80 83 87 93 94 100 110 119 122 124 127 120 125 117 107 104 103 102 107 123 138 154 159 157 147 145 143 152 144 149 164 146 120
150 129 86 65 52 53 42 37 46 69 82 86 87 96 103 109 118 125 125 124 127 122 129 129 133 130 132 133 138 134 121 115 125 141 148 144 147 151 154 146 131 119 123
174 159 146 109 94 79 80 66 41 32 42 92 107 102 106 119 132 137 144 145 139 138 132 131 139 148 152 143 141 135 128 115 124 138 139 134 140 151 154 139 132 124 109
190 185 174 161 149 148 110 80 84 67 55 53 60 87 116 131 143 148 153 162 151 146 140 142 151 155 153 152 150 143 137 137 134 128 127 127 126 140 157 174 172 155 145
195 192 189 177 168 167 167 166 158 139 131 118 86 83 102 105 132 159 162 173 170 162 159 156 163 169 167 161 156 165 169 160 149 145 137 131 129 130 143 146 177 185 171
208 203 198 193 190 187 181 177 171 179 187 184 180 174 211 173 158 184 191 192 190 191 183 182 182 179 178 172 177 181 179 166 161 160 155 152 151 143 133 130 131 138 148
210 214 215 209 204 199 197 193 188 188 191 203 214 223 230 211 210 218 222 226 209 203 201 195 189 180 182 186 194 195 185 182 186 185 181 183 179 163 151 135 129 128 121
213 215 217 222 224 221 217 212 205 205 204 204 207 214 222 225 224 220 211 203 204 197 183 177 185 183 186 197 180 187 194 201 207 208 202 205 194 182 176 167 163 155 139
219 224 223 224 227 232 230 227 226 227 221 220 221 215 209 220 228 225 215 212 204 203 194 195 191 199 198 196 204 213 220 220 217 209 210 212 202 199 201 195 188 181 176
220 224 228 228 230 232 236 241 240 238 237 236 232 229 224 223 213 214 223 225 222 209 197 200 205 213 219 217 216 216 222 223 220 216 219 219 213 210 212 209 208 203 198
234 232 232 232 232 233 233 236 240 243 241 241 241 238 233 231 224 220 209 212 217 207 216 215 220 223 226 224 224 221 225 229 227 224 225 222 219 220 217 219 216 214 210
239 240 238 240 238 236 238 239 238 234 240 245 240 236 236 233 231 227 218 201 198 208 222 224 228 231 231 230 229 230 233 232 230 228 227 227 224 222 219 220 222 220 218
239 242 243 241 243 246 247 246 244 240 237 244 257 254 241 239 236 230 219 218 217 217 221 230 234 244 245 245 245 242 238 234 235 236 234 231 229 225 228 227 227 228 221
242 245 246 245 244 241 240 239 237 236 237 237 239 245 244 228 219 219 219 218 223 229 234 236 242 247 252 250 250 248 244 240 237 236 238 238 237 233 232 231 228 227 223
256 252 245 245 240 238 237 234 237 233 233 237 242 243 245 237 227 226 221 222 225 229 235 239 243 245 249 254 253 252 250 249 247 245 242 242 240 236 236 235 234 232 231
258 256 251 241 239 233 236 240 238 240 239 239 245 249 242 236 234 235 235 236 241 247 248 247 248 251 252 251 255 251 253 252 250 249 245 242 240 241 239 236 233 233 229
251 253 251 248 244 238 233 238 238 240 245 248 252 253 247 237 238 239 240 244 246 249 253 252 252 252 256 258 257 259 256 258 259 257 253 247 238 236 235 231 227 222 222
253 251 246 242 240 234 230 229 237 240 242 248 250 251 249 246 249 251 256 259 257 257 257 257 257 255 257 258 261 261 262 262 264 264 258 254 246 240 234 229 226 225 222
257 255 250 245 240 240 232 231 231 237 246 251 247 248 252 256 254 259 261 263 266 263 262 262 262 260 260 259 260 265 269 271 269 264 258 251 248 243 237 232 228 222 220
270 259 253 249 246 242 238 230 236 241 243 245 248 251 256 260 260 262 264 266 267 270 275 272 272 272 271 270 269 270 269 268 267 264 258 253 242 236 233 231 231 222 221